DW6654 Weather Reports


time (UTC)temp
C
wind
direction
speed
KPH
gust
KPH
rain 1hr
cm
rain 24hr
cm
rain mn
cm
humidity
%
barometer
mb
20260507040037 10 163 3.2 12.9 0.00 0.38 0.38 91 1006.5
20260507034537 10 198 1.6 11.3 0.00 0.38 0.38 91 1006.2
20260507033035 10 349 4.8 14.5 0.03 0.38 0.38 90 1006.0
20260507031531 10 298 4.8 16.1 0.05 0.38 0.38 91 1005.9
20260507030029 11 284 4.8 20.9 0.05 0.38 0.38 91 1005.7
20260507024525 11 323 8.0 20.9 0.05 0.38 0.38 91 1005.7
20260507023021 12 210 8.0 25.7 0.05 0.36 0.36 89 1006.1
20260507021516 13 192 8.0 24.1 0.03 0.33 0.33 91 1005.7
20260507020014 13 215 4.8 14.5 0.03 0.33 0.33 91 1005.0
20260507014520 14 198 1.6 14.5 0.03 0.33 0.33 92 1005.1
20260507013029 14 153 3.2 9.7 0.00 0.30 0.30 93 1005.0
20260507011511 14 164 6.4 17.7 0.00 0.30 0.30 93 1004.7
20260507010006 14 130 6.4 17.7 0.00 0.30 0.30 92 1004.8
20260507004504 15 128 8.0 24.1 0.00 0.30 0.30 92 1004.6
20260507003002 15 126 9.7 22.5 0.00 0.30 0.30 92 1004.5
20260507001502 15 180 4.8 17.7 0.00 0.30 0.30 92 1004.2
20260507000101 15 175 4.8 19.3 0.00 0.30 0.30 92 1004.3
20260506234559 15 113 3.2 20.9 0.00 0.30 0.30 91 1004.1
20260506233107 15 128 6.4 19.3 0.00 0.30 0.30 91 1003.9
20260506231558 15 167 8.0 20.9 0.00 0.30 0.30 91 1004.0
20260506230057 15 142 4.8 19.3 0.00 0.30 0.30 92 1004.0
20260506224555 15 250 4.8 19.3 0.00 0.30 0.30 92 1004.1
20260506223108 15 126 1.6 12.9 0.00 0.30 0.30 92 1004.2
20260506221557 15 155 9.7 24.1 0.03 0.30 0.30 91 1004.3
20260506220051 15 155 8.0 25.7 0.05 0.30 0.30 92 1004.3
20260506214600 15 162 9.7 24.1 0.05 0.30 0.30 92 1004.3
20260506213050 15 122 0.0 11.3 0.05 0.30 0.30 93 1004.3
20260506211549 15 163 8.0 17.7 0.05 0.28 0.28 92 1004.3
20260506210050 15 146 9.7 32.2 0.05 0.25 0.25 92 1004.3
20260506204545 15 189 8.0 16.1 0.05 0.25 0.25 93 1004.5
20260506203046 15 140 12.9 22.5 0.10 0.25 0.25 92 1004.6
20260506201542 15 122 3.2 12.9 0.08 0.23 0.23 92 1004.7
20260506194540 15 87 6.4 19.3 0.08 0.20 0.20 91 1005.0
20260506193041 16 132 4.8 14.5 0.03 0.15 0.15 90 1005.1
20260506191538 16 132 6.4 14.5 0.05 0.15 0.15 90 1005.2
20260506190036 16 175 3.2 14.5 0.05 0.15 0.15 91 1005.1
20260506184535 16 145 6.4 12.9 0.08 0.13 0.13 90 1005.1
20260506183034 16 121 6.4 12.9 0.10 0.13 0.13 90 1005.5
20260506181535 16 132 1.6 6.4 0.10 0.10 0.10 89 1006.0
20260506180035 16 121 1.6 4.8 0.10 0.10 0.10 87 1006.2
20260506174528 16 184 0.0 8.0 0.05 0.05 0.05 85 1006.4
20260506173024 17 232 1.6 11.3 0.03 0.03 0.03 80 1006.6
20260506171538 17 132 8.0 25.7 0.00 0.00 0.00 75 1006.5
20260506170023 18 147 8.0 22.5 0.00 0.00 0.00 72 1006.4
20260506164525 18 138 8.0 22.5 0.00 0.00 0.00 71 1006.5
20260506163025 18 126 6.4 25.7 0.00 0.00 0.00 70 1006.5
20260506161534 18 116 6.4 30.6 0.00 0.00 0.00 70 1006.9
20260506160018 18 125 11.3 22.5 0.00 0.00 0.00 69 1007.0
20260506154518 18 232 8.0 33.8 0.00 0.00 0.00 69 1007.2
20260506153017 18 141 6.4 19.3 0.00 0.00 0.00 69 1007.5
20260506151517 18 196 6.4 24.1 0.00 0.00 0.00 70 1007.6
20260506150022 18 167 16.1 33.8 0.00 0.00 0.00 69 1007.8
20260506144513 19 165 3.2 22.5 0.00 0.00 0.00 70 1007.3
20260506143012 19 186 9.7 29.0 0.00 0.00 0.00 68 1007.5
20260506141509 18 105 9.7 24.1 0.00 0.00 0.00 70 1007.3
20260506140007 18 199 1.6 11.3 0.00 0.00 0.00 71 1007.4
20260506134512 18 204 1.6 14.5 0.00 0.00 0.00 73 1007.2
20260506133002 17 150 11.3 22.5 0.00 0.00 0.00 73 1007.4
20260506131503 17 161 4.8 19.3 0.00 0.00 0.00 75 1007.5
20260506130059 17 213 6.4 17.7 0.00 0.00 0.00 76 1007.6
20260506124603 17 129 8.0 20.9 0.00 0.00 0.00 78 1007.6
20260506123058 16 178 11.3 29.0 0.00 0.00 0.00 78 1007.9
20260506121606 16 159 6.4 19.3 0.00 0.00 0.00 78 1007.7
20260506120055 16 146 11.3 27.4 0.00 0.00 0.00 78 1007.7
20260506114556 16 188 6.4 20.9 0.00 0.00 0.00 78 1007.8
20260506113054 16 96 4.8 16.1 0.00 0.00 0.00 80 1008.0
20260506111610 16 209 4.8 17.7 0.00 0.00 0.00 79 1008.1
20260506110054 16 212 3.2 16.1 0.00 0.00 0.00 79 1008.1
20260506104553 15 136 4.8 19.3 0.00 0.00 0.00 79 1007.9
20260506103051 15 148 3.2 19.3 0.00 0.00 0.00 80 1008.0
20260506101551 15 85 1.6 8.0 0.00 0.00 0.00 80 1007.9
20260506100049 15 130 4.8 14.5 0.00 0.00 0.00 79 1007.8
20260506094548 15 69 0.0 12.9 0.00 0.00 0.00 79 1007.9
20260506093052 15 165 3.2 8.0 0.00 0.00 0.00 79 1008.0
20260506091545 15 113 1.6 11.3 0.00 0.00 0.00 77 1007.8
20260506090042 15 150 0.0 8.0 0.00 0.00 0.00 76 1008.0
20260506084542 15 188 1.6 11.3 0.00 0.00 0.00 75 1007.9
20260506083046 15 213 0.0 12.9 0.00 0.00 0.00 74 1007.9
20260506081546 16 254 3.2 14.5 0.00 0.00 0.00 73 1007.9
20260506073034 16 168 6.4 22.5 0.00 0.00 0.00 70 1007.9
20260506071533 16 225 8.0 17.7 0.00 0.00 0.00 68 1007.9
20260506061532 17 86 8.0 20.9 0.00 0.00 0.00 65 1007.8
20260506044517 17 101 9.7 32.2 0.00 0.00 0.00 61 1008.2
20260506043012 17 67 4.8 17.7 0.00 0.00 0.00 61 1008.2
20260506041506 17 133 6.4 14.5 0.00 0.00 0.00 60 1008.2